Regional Weather Roundup
Issued by NWS

Home | Current Version | Previous Version | Graphics & Text | Print | Product List | Glossary On
Versions: 1 2 3 4 5 6 7 8 9 10 11 12 13 14 15 16 17 18 19 20 21 22 23 24 25 26 27 28 29 30 31 32 33 34 35 36 37 38 39 40 41 42 43 44 45 46 47 48 49 50
000
ASUS43 KDTX 270901
RWRMI
MICHIGAN HOURLY REGIONAL WEATHER ROUNDUP
NATIONAL WEATHER SERVICE DETROIT/PONTIAC MI
400 AM EST SAT DEC 27 2014

NOTE: "FAIR" INDICATES FEW OR NO CLOUDS BELOW 12,000 FEET WITH NO
SIGNIFICANT WEATHER AND/OR OBSTRUCTION TO VISIBILITY.

MIZ047>049-052>055-059>063-066>070-074>076-081>083-271000-
SOUTHEAST LOWER MICHIGAN

CITY           SKY/WX    TMP DP  RH WIND       PRES   REMARKS
ADRIAN         CLOUDY    43  39  86 SW10      30.11F
ALMA           CLOUDY    42  40  91 S5        30.03F
ANN ARBOR      CLOUDY    33  32  96 S3        30.10F FOG
BAD AXE        MOCLDY    37  37 100 S5        30.05F WCI  33
CARO           CLOUDY    42  39  91 S3        30.05F
DETROIT CITY   CLOUDY    44  37  76 SW8       30.11F
DETROIT        MOCLDY    38  36  92 S5        30.12S WCI  34
FLINT          CLOUDY    46  39  76 S7        30.07F
GROSSE ILE     CLOUDY    39  36  87 CALM      30.11S
HILLSDALE      CLOUDY    43  42  95 S7        30.08F
HOWELL         CLOUDY    42  39  91 S5        30.06F

CITY           SKY/WX    TMP DP  RH WIND       PRES   REMARKS
JACKSON        CLOUDY    43  39  86 S6        30.08F
LAMBERTVILLE   CLOUDY    45  37  76 S7        30.13S
LANSING        CLEAR     42  39  89 S7        30.05F
LAPEER         CLOUDY    43  39  85 SW7       30.07S
MASON          MOCLDY    41  38  89 S9        30.06F
MONROE         CLOUDY    45  37  76 SW6       30.10F
MT. CLEMENS    CLOUDY    40  40 100 S5        30.09S
PONTIAC        CLOUDY    42  39  89 S6        30.08F
PORT HOPE        N/A     35  33  92 CALM      30.04F
PORT HURON     CLOUDY    39  37  93 S5        30.10F
TRI CITIES     CLOUDY    43  39  86 S5        30.04F
TROY           CLOUDY    43  38  83 SW3       30.11F
SAGINAW HB     CLOUDY    43  41  93 S7        30.04F
$$
MIZ043>046-050>051-056>058-064>065-071>073-077>080-271000-
SOUTHWEST LOWER MICHIGAN

CITY           SKY/WX    TMP DP  RH WIND       PRES   REMARKS
BATTLE CREEK   CLOUDY    45  40  82 S9        30.06F
BENTON HARBOR  CLOUDY    45  42  89 S6        30.03F
BIG RAPIDS     CLOUDY    36  36 100 CALM      30.00F
COLDWATER      CLOUDY    46  40  81 S6        30.07F
FREMONT        CLOUDY    39  39  97 CALM      30.00F
HOLLAND        CLOUDY    46  41  82 S10       30.02F
GRAND RAPIDS   PTCLDY    42  38  85 S9        30.03F
IONIA          FAIR      43  40  90 S8        30.03F
KALAMAZOO      CLOUDY    43  40  89 S5        30.05F
MARSHALL       CLOUDY    43  39  88 S5        30.06F
MOUNT PLEASANT CLOUDY    34  34  98 CALM      30.02F FOG
MUSKEGON       CLOUDY    47  41  80 S16       30.00F
SOUTH HAVEN    CLOUDY    46  42  85 S5        30.02F
$$
MIZ016>042-271000-
NORTHERN LOWER MICHIGAN

CITY           SKY/WX    TMP DP  RH WIND       PRES   REMARKS
ALPENA         CLOUDY    37  33  85 S7        30.05S WCI  32
BEAVER ISLAND  RAIN      34  34 100 CALM      30.00F
BELLAIRE       CLOUDY    38  35  87 SE5       30.01F WCI  35
CADILLAC       CLOUDY    32  32  99 CALM      29.97F FOG
CHARLEVOIX     CLOUDY    37  36  95 SE5       30.02F WCI  33
FRANKFORT      PTCLDY    38  36  93 SE5       29.98F WCI  34
GAYLORD        CLOUDY    34  34 100 S3        30.00F FOG
GRAYLING       CLOUDY    33  33 100 CALM      30.01F FOG
HARBOR SPRINGS CLOUDY    35  34  96 NE5       30.01S WCI  31
HOUGHTON LAKE  CLOUDY    35  33  92 CALM      30.01F
MANISTEE       PTCLDY    34  30  86 E5        29.98F WCI  30
OSCODA         CLOUDY    35  34  97 CALM      30.04F
PELLSTON       CLOUDY    35  34  96 S3        30.01F
ROGERS CITY    CLOUDY    37  35  95 S8        30.04S WCI  30
TRAVERSE CITY  CLOUDY    39  35  86 CALM      29.99F
$$
MIZ007>008-015-271000-
EASTERN UPPER MICHIGAN

CITY           SKY/WX    TMP DP  RH WIND       PRES   REMARKS
KINROSS        CLOUDY    34  34 100 CALM      30.00F VSB 1/2
MACKINAC ISLAN LGT SNOW  36  36 100 SE5       30.00S WCI  32
NEWBERRY       LGT SNOW  32  32 100 NE5       29.99S VSB 1   WCI  27
S. S. MARIE    LGT RAIN  33  32  96 NE3       29.99F VSB 1/2
MUNISING         N/A     35  32  88 NE12      30.00F WCI  27
$$
MIZ004>006-011>014-085-271000-
CENTRAL UPPER MICHIGAN

CITY           SKY/WX    TMP DP  RH WIND       PRES   REMARKS
MANISTIQUE     LGT SNOW  32  32 100 N3        29.99S
ESCANABA       CLOUDY    32  30  93 NE3       29.99F
MENOMINEE      CLOUDY    34  30  86 NE7       29.96F WCI  28
SAWYER-GWINN   LGT SNOW  31  30  95 NE7       29.97F WCI  25
$$
MIZ001>003-009>011-084-271000-
WESTERN UPPER MICHIGAN

CITY           SKY/WX    TMP DP  RH WIND       PRES   REMARKS
IRON MOUNTAIN  LGT SNOW  32  30  92 N3        29.96F FOG
HOUGHTON       LGT SNOW  29  26  89 NE5       30.00F FOG     WCI  24
COPPER HARBOR    N/A     32  27  81 E10       30.03S WCI  24
IRONWOOD       CLOUDY    28  28 100 CALM      29.97S
$$

ABBREVIATIONS USED IN REMARKS
   TC - TEMPERATURE IN CELSIUS
  WCI - WIND CHILL INDEX
   HX - HEAT INDEX
  VSB - VISIBILITY



USA.gov is the U.S. government's official web portal to all federal, state and local government web resources and services.